Theta_e
336 334 330 325 324 322 319 315 302 307 306 301 303 306 305 314 313 310 310 313 309 316 319 317 318 319 316 316 321 327 330 326 327 316 323 342 349 349 352 353 352 350 349 350 350 350 351 351 351 350 350 350 350 350 351 350 350 350 350 351 351 352 352 353 353 353 353 353 353 353 353 353 352 352 352 352 352 352 351 351 351 352 351 350 351 350 350 350 350 349 349 348 347 346 346 345 344
328 327 324 324 321 319 311 315 305 303 303 300 302 306 307 312 312 309 310 311 311 314 320 319 320 322 322 325 323 325 334 336 331 339 343 347 350 349 353 353 351 349 349 349 349 349 351 352 350 350 350 351 351 351 350 351 352 352 352 352 352 353 353 353 353 353 353 353 353 353 353 353 352 352 352 352 352 352 350 350 351 350 351 350 350 350 349 350 350 350 350 349 348 348 347 346 345
324 324 321 322 319 317 315 313 300 301 299 297 301 305 311 309 308 311 312 312 315 321 323 321 322 321 322 324 318 318 328 339 342 343 342 348 344 348 353 354 353 350 351 351 349 349 350 351 351 351 350 350 350 350 350 351 352 352 353 353 353 353 353 353 354 354 353 353 353 353 352 353 353 352 352 352 351 351 350 350 350 351 351 351 349 350 349 349 350 349 349 349 348 348 348 346 344
326 325 318 319 312 317 309 308 304 301 298 301 301 307 309 308 309 312 314 315 317 323 324 322 318 332 322 319 325 332 332 335 339 341 340 344 346 351 353 354 354 350 351 350 350 348 350 350 351 350 350 350 350 350 351 352 352 352 353 353 354 353 353 354 353 353 353 353 353 352 352 353 352 352 352 351 351 351 351 350 350 351 350 350 350 350 350 349 348 349 349 349 348 349 347 346 343
319 322 321 315 312 308 308 307 305 304 299 303 301 308 311 310 310 312 313 321 323 322 322 322 321 331 331 330 330 327 329 336 334 344 343 349 353 353 353 353 351 349 349 348 349 349 349 350 350 350 350 350 350 351 351 352 353 353 353 353 354 354 354 353 353 353 353 353 353 352 352 352 352 351 351 351 351 351 350 350 350 349 351 350 349 348 348 348 348 348 348 347 346 346 347 346 344
322 319 320 316 309 316 310 303 302 302 304 307 304 307 310 312 311 312 312 322 322 323 320 322 320 321 326 332 339 332 336 326 337 338 347 348 353 354 353 353 349 348 347 349 350 348 350 350 350 351 350 350 349 350 351 352 353 353 353 353 354 354 354 353 353 353 353 352 352 352 352 351 351 351 351 351 351 351 350 350 350 349 349 350 349 349 349 347 346 345 346 345 345 345 345 345 345
316 316 315 314 313 312 303 302 302 303 306 309 307 308 310 311 312 311 311 312 319 321 325 322 323 324 317 335 339 343 344 342 341 343 350 351 354 353 353 350 349 347 349 350 350 349 350 350 350 350 349 349 349 349 351 351 352 352 353 353 353 354 353 353 353 353 353 353 352 352 352 351 351 351 351 350 350 350 349 349 349 349 349 349 349 349 348 348 346 345 345 347 346 346 346 346 345
319 313 313 308 306 307 302 302 303 305 306 310 310 309 312 312 313 310 310 309 311 316 322 326 326 321 329 336 330 339 347 344 346 352 353 353 354 353 352 350 347 346 347 349 350 350 352 350 350 350 349 349 349 350 350 351 351 351 352 353 354 353 353 353 352 352 352 352 352 351 351 351 351 351 350 350 351 350 349 348 348 347 347 347 347 347 347 346 345 345 345 347 347 348 348 347 346
315 312 314 309 304 306 303 302 304 309 308 310 310 312 316 313 313 311 309 311 312 313 318 326 325 318 328 330 331 338 343 348 350 351 352 352 351 351 350 349 346 346 347 349 350 349 349 350 350 350 349 349 349 349 350 350 350 352 353 353 353 353 353 352 352 352 352 352 351 351 351 350 350 350 349 349 349 349 348 348 347 347 346 346 345 345 346 346 346 346 345 345 348 348 348 348 348
312 311 306 306 306 300 301 302 302 306 307 311 310 311 312 313 311 311 309 309 310 312 315 317 324 319 330 330 332 334 341 348 349 349 350 350 351 352 350 348 347 347 349 349 349 349 349 351 350 350 349 349 349 349 350 351 351 352 353 353 353 352 352 352 352 352 351 351 351 351 351 350 350 349 349 349 348 347 347 347 346 346 345 344 343 343 344 344 344 345 346 346 348 348 347 348 348
307 312 311 303 301 300 300 301 304 307 308 311 311 312 312 312 311 310 310 309 311 310 313 316 322 321 327 331 336 343 347 348 348 346 349 350 352 349 347 348 347 349 350 350 350 350 349 349 351 350 350 349 350 351 352 353 353 353 353 353 352 352 352 352 351 351 351 351 350 349 349 349 349 349 348 348 347 347 346 346 346 345 345 345 344 343 343 343 343 344 344 345 345 347 347 347 347
306 307 307 300 300 300 302 302 304 306 309 310 308 310 312 311 310 308 308 307 309 309 310 316 318 324 327 329 335 341 345 346 346 348 350 351 349 349 348 347 348 349 351 350 350 349 349 349 349 351 350 350 351 352 352 352 352 352 352 352 352 352 351 351 351 351 350 350 349 348 348 348 348 347 347 346 346 346 346 345 345 345 345 344 343 342 342 342 342 342 343 344 345 346 347 346 347
307 308 305 302 301 302 303 302 303 305 306 307 308 310 312 309 307 308 308 309 309 308 309 314 322 325 323 327 338 343 342 347 349 350 350 349 349 349 349 348 348 350 351 352 350 349 350 350 348 348 350 350 350 350 351 350 351 351 351 351 351 351 351 351 351 351 350 349 349 349 348 347 347 347 346 346 346 345 346 345 345 345 344 342 342 342 341 341 341 341 342 343 344 345 346 346 347
308 308 306 301 306 303 302 302 304 303 304 308 310 311 311 309 309 310 311 309 310 309 312 315 318 326 328 335 335 338 342 349 349 351 350 350 350 350 349 348 350 352 350 350 349 349 348 349 349 348 348 348 348 349 349 349 350 351 351 351 351 351 351 351 350 350 349 349 349 349 348 348 348 347 346 346 345 344 344 344 344 344 343 344 343 343 341 342 341 341 341 341 343 343 345 346 346
307 310 306 303 302 303 304 301 302 302 303 308 310 309 310 311 311 311 312 311 312 315 315 316 319 323 323 327 329 336 344 349 350 351 350 351 350 350 349 350 351 351 349 349 349 349 347 351 349 349 350 348 348 346 347 350 349 350 350 351 351 350 351 350 350 350 350 349 349 348 348 347 347 346 346 346 345 344 344 344 344 344 344 343 343 342 341 340 341 341 340 341 342 343 345 347 346
311 309 306 302 300 301 303 303 305 303 303 308 309 311 308 310 313 312 314 315 314 316 315 310 323 321 329 327 332 341 348 349 350 351 349 350 349 350 349 349 348 349 349 350 350 350 350 350 350 349 349 349 350 348 345 347 348 349 349 350 350 351 350 351 350 350 350 349 349 349 348 349 348 348 347 348 347 346 345 345 344 344 344 343 344 343 342 340 340 340 342 340 343 344 345 346 347
313 310 303 302 299 301 303 303 304 301 306 309 310 309 306 308 317 319 323 325 315 312 313 321 323 328 329 329 334 344 349 349 349 349 348 347 347 346 346 347 346 347 348 349 351 350 350 350 350 351 351 350 349 348 347 346 347 349 350 350 349 350 350 351 350 350 349 349 350 349 348 350 349 349 349 347 346 347 344 343 343 344 342 344 343 343 342 340 340 341 340 341 340 343 345 346 347
310 303 302 300 302 301 305 304 306 308 306 308 308 309 308 306 312 318 322 318 315 317 317 325 332 335 335 339 340 346 348 347 347 345 344 344 345 343 342 343 344 344 347 348 350 350 350 351 350 349 350 348 348 347 347 345 348 347 350 351 350 352 351 352 352 350 351 352 350 350 349 345 345 345 345 345 347 348 347 345 344 344 344 344 344 343 343 342 340 340 339 340 342 341 344 349 347
306 304 303 300 303 305 308 309 309 307 306 309 309 309 309 308 310 317 317 315 312 319 319 323 330 335 339 343 344 345 346 346 346 345 343 343 343 342 342 343 343 343 344 347 345 349 351 352 347 348 348 347 346 347 344 343 345 344 348 347 348 347 352 350 348 348 349 347 346 345 345 344 343 342 345 344 348 348 348 346 345 345 345 345 344 344 344 344 343 339 342 340 340 341 343 348 347
308 305 301 302 307 308 309 309 308 308 309 308 308 309 308 310 313 320 315 314 312 316 315 323 328 329 335 341 342 344 345 344 345 344 343 343 343 342 342 342 342 343 343 343 344 348 349 347 349 348 346 346 345 344 342 344 342 343 344 345 345 347 347 346 346 347 346 346 346 346 345 346 345 346 341 341 343 346 348 347 346 346 345 344 344 344 344 342 342 340 339 340 341 341 342 344 344
308 305 302 305 308 306 308 309 309 308 308 308 308 309 308 311 315 321 317 312 311 317 321 323 326 327 334 340 341 342 343 343 343 344 343 343 344 344 343 342 342 343 344 344 344 345 347 347 345 345 345 343 344 342 342 340 344 343 343 344 345 342 343 345 346 347 347 346 345 348 347 348 349 347 349 349 347 347 345 347 347 347 347 345 345 347 346 345 343 335 333 336 338 337 340 342 343
308 305 307 307 309 307 309 309 309 308 309 308 309 306 307 322 321 320 318 312 311 317 322 324 325 329 337 338 339 341 342 342 342 343 342 343 343 341 343 343 345 344 344 342 342 344 345 345 344 343 344 343 343 341 341 342 343 343 344 343 343 344 343 343 343 345 345 346 347 349 351 351 349 348 348 348 349 350 347 346 346 345 344 342 338 342 341 342 344 340 335 331 334 341 340 340 341
303 306 307 308 309 307 310 309 308 307 308 307 307 309 311 310 317 321 318 316 327 333 325 326 328 335 340 341 340 339 340 341 341 341 342 341 341 342 342 343 342 341 341 342 343 343 344 343 343 342 342 342 343 342 343 341 340 342 344 343 343 343 343 342 342 344 346 347 350 352 350 349 351 351 348 350 350 352 346 349 349 348 351 345 342 342 342 341 339 339 337 337 337 336 338 339 339
306 303 307 307 309 308 310 309 309 308 307 307 310 311 308 309 308 320 319 328 327 333 334 336 336 335 341 339 339 340 340 340 341 342 342 341 341 342 342 341 342 343 342 342 341 341 341 341 342 343 341 341 342 344 343 340 344 344 344 342 343 342 343 345 345 348 348 349 352 351 353 349 347 346 346 348 348 346 349 348 349 349 349 348 347 348 343 341 340 340 341 337 335 335 335 338 338
305 304 307 309 309 310 310 310 308 308 308 310 310 308 308 309 310 320 320 329 334 336 336 335 336 335 337 339 339 340 340 340 340 341 342 341 343 343 343 342 342 341 339 340 339 339 340 341 342 341 341 341 344 343 341 342 343 345 344 345 344 344 347 348 348 349 349 350 350 350 349 349 347 347 346 347 350 348 352 349 354 349 349 348 351 349 345 344 343 341 343 338 340 337 338 341 338
306 306 307 308 308 310 310 309 309 308 309 310 308 307 309 311 313 321 333 332 333 337 337 335 339 338 335 338 339 339 339 340 341 340 340 341 342 341 341 340 339 338 338 338 337 338 340 341 341 340 342 343 344 344 344 345 346 344 346 346 344 346 347 349 348 347 346 345 349 349 348 349 350 348 347 349 348 347 347 349 351 347 349 348 349 347 351 345 344 343 342 341 338 339 337 337 338
308 307 307 307 308 309 309 308 308 309 309 310 307 307 309 316 314 320 336 336 334 334 337 339 337 337 338 336 339 339 339 340 340 341 340 339 339 339 339 338 337 337 337 336 336 337 340 340 339 341 343 345 344 342 346 347 347 347 348 348 347 347 349 350 350 349 350 348 349 351 349 349 350 348 348 347 346 345 347 348 348 349 347 349 350 348 350 351 348 346 345 343 341 338 339 338 338
308 308 307 306 307 309 309 308 308 308 307 310 309 308 314 319 315 318 331 338 336 333 336 336 336 336 336 338 338 340 340 339 339 339 337 337 337 338 337 336 336 336 336 336 336 338 338 341 341 343 344 345 345 345 347 347 349 349 350 350 348 350 351 349 348 351 348 348 350 351 351 351 349 349 349 349 348 346 346 347 348 349 347 348 351 349 349 350 348 347 347 347 348 346 342 340 340
307 307 302 304 305 305 308 307 307 309 307 310 310 308 312 318 319 325 331 337 336 335 332 330 329 335 335 336 338 338 339 338 339 337 339 339 340 339 338 339 336 336 336 338 337 339 340 343 343 344 344 346 345 347 347 348 350 350 351 349 348 347 347 346 345 346 347 349 351 350 350 349 351 350 350 349 348 347 347 347 347 349 349 350 351 350 350 350 348 346 346 346 345 346 344 344 341
307 306 304 303 302 302 306 308 308 307 308 309 309 298 306 314 322 323 320 324 332 334 328 331 331 334 334 333 331 331 333 334 333 333 333 338 342 339 337 338 338 335 335 337 339 340 343 344 345 347 346 345 346 348 349 346 349 350 351 351 350 349 347 346 347 348 348 347 349 349 349 349 349 349 348 347 346 347 348 347 347 347 348 350 351 351 349 347 344 344 344 343 342 342 342 342 343
301 304 304 300 299 299 306 306 307 304 308 309 309 299 306 320 323 324 323 322 330 331 332 331 332 331 331 330 329 329 327 328 327 330 333 336 340 339 337 338 339 338 336 338 339 341 344 344 346 347 347 347 346 348 346 347 349 347 346 345 348 351 350 349 349 350 348 347 348 348 349 348 348 348 347 348 344 345 345 345 346 346 349 350 347 349 346 347 346 345 345 342 344 344 342 342 340
303 299 296 299 298 301 305 307 306 303 307 310 307 301 306 320 322 326 328 327 320 325 328 329 329 330 326 326 326 324 325 327 330 333 335 338 339 339 339 338 340 339 338 339 341 341 341 342 346 345 348 348 348 347 347 347 347 347 348 347 350 351 348 350 349 349 348 347 348 347 347 347 347 348 348 349 347 345 344 344 344 348 348 348 347 348 347 345 345 345 346 345 343 342 342 341 343
301 298 297 296 298 300 302 305 307 307 307 308 307 302 314 318 322 327 331 326 324 322 319 322 323 322 324 327 327 328 327 330 331 331 335 338 339 340 340 342 341 340 340 341 340 338 338 341 344 345 345 342 344 345 347 347 346 346 348 350 349 350 348 349 349 350 349 348 346 346 348 349 348 347 348 348 347 346 345 345 345 347 349 347 348 346 345 345 344 343 344 345 344 341 340 340 342
297 299 297 299 298 299 299 304 306 307 307 304 308 306 310 319 323 326 330 326 319 317 320 322 325 323 323 326 329 330 331 331 331 333 337 339 340 341 343 342 343 341 340 338 339 336 339 342 342 339 339 340 344 343 346 346 347 350 350 349 349 349 349 349 349 349 349 347 348 347 348 349 348 348 348 348 347 344 344 345 345 346 346 347 344 343 340 344 343 343 340 342 343 342 340 340 341
296 296 296 298 300 301 300 299 304 306 307 305 306 306 317 319 322 326 327 327 322 318 317 323 324 323 327 327 330 330 331 332 333 335 337 334 336 341 342 342 341 337 336 337 336 337 339 340 338 334 335 338 340 342 344 347 349 349 350 349 349 349 350 350 348 346 346 347 346 345 345 345 345 348 348 347 346 344 344 344 344 343 344 344 344 343 342 342 342 343 341 341 343 343 340 340 340
299 299 297 299 298 299 300 303 306 306 304 304 305 310 316 319 321 323 322 323 324 322 322 321 326 326 328 327 328 329 331 331 335 338 337 335 333 334 337 337 336 335 335 336 335 334 336 338 336 335 336 337 339 340 343 346 345 341 343 345 342 343 345 345 347 345 346 344 344 344 343 344 343 344 344 347 345 343 344 344 344 344 343 343 341 341 339 339 340 339 339 338 337 337 338 338 338
302 301 299 299 300 300 304 304 306 307 304 303 306 311 315 317 318 321 323 323 322 320 318 321 323 326 327 327 331 331 330 326 330 331 329 328 330 332 333 334 334 334 334 334 332 334 335 337 336 334 336 337 336 338 337 341 339 343 344 343 341 342 341 343 343 344 344 343 343 342 342 342 342 342 343 344 344 344 344 343 343 342 341 341 339 338 339 339 339 339 338 338 336 335 335 336 337
302 300 299 299 301 299 304 303 305 307 304 303 309 310 313 316 318 321 323 322 320 321 319 321 322 325 326 327 327 327 326 329 332 330 328 329 331 332 332 332 332 329 331 332 332 334 334 336 338 336 337 335 336 339 339 342 340 342 340 339 340 340 340 338 338 340 341 342 343 342 342 342 342 341 341 341 342 342 341 340 342 340 338 338 338 338 339 337 338 337 337 335 336 333 333 335 335
301 300 299 298 300 303 304 305 306 306 305 305 309 308 309 314 318 321 321 321 322 324 324 323 324 324 325 326 327 326 327 328 329 329 328 328 329 330 331 332 331 332 333 332 334 336 337 336 337 336 336 336 335 337 341 338 340 343 342 340 340 339 341 341 339 339 340 340 340 341 341 340 339 339 340 339 339 339 339 338 338 339 338 337 336 336 337 337 337 336 336 334 333 335 333 335 335
301 301 299 297 301 300 297 304 306 306 305 309 310 308 311 314 317 317 320 321 322 325 323 325 323 324 325 326 325 325 328 328 328 327 328 328 328 328 328 329 330 333 333 333 333 335 335 336 334 333 336 335 335 338 338 338 342 342 342 341 341 339 336 338 339 339 338 338 337 338 338 339 337 336 336 335 335 336 336 336 336 336 335 334 333 331 331 331 332 332 331 331 331 329 329 330 335
301 301 300 299 300 302 302 302 306 308 308 313 310 310 310 313 309 315 320 322 323 324 323 325 327 328 327 329 329 329 328 329 327 328 329 329 328 327 328 330 331 331 332 335 334 334 335 334 335 336 337 335 337 338 341 342 341 340 340 339 338 337 337 337 335 335 335 334 333 334 334 335 334 333 333 332 332 331 332 332 333 332 331 332 331 328 328 327 329 330 329 328 328 326 325 328 331
299 301 302 301 303 303 303 305 303 301 301 309 309 299 301 308 314 315 319 319 319 321 322 324 325 325 325 325 326 328 330 331 330 329 329 329 328 328 329 330 329 329 330 332 334 334 335 336 336 334 333 335 338 339 339 340 340 338 337 334 332 332 331 331 330 330 331 330 329 332 331 331 331 331 329 329 329 329 329 329 329 329 329 329 327 327 327 326 327 328 328 327 326 327 326 325 326
297 298 303 303 304 302 303 302 301 296 295 304 310 298 294 307 307 312 316 317 319 322 322 321 324 325 326 327 328 327 327 329 331 330 329 329 329 328 328 329 329 328 330 332 333 335 337 334 335 333 334 336 337 339 336 338 338 338 337 336 335 332 330 331 332 333 332 331 331 330 329 329 328 327 327 326 327 327 328 328 327 328 328 327 326 326 325 325 326 327 327 326 326 326 325 323 324
296 303 303 302 302 302 303 303 302 300 305 308 308 304 298 299 306 311 316 314 314 315 318 321 323 325 325 327 328 328 328 329 328 327 328 329 329 328 327 328 329 329 330 330 330 331 332 334 335 336 337 336 338 338 339 339 337 336 336 335 334 333 331 329 331 331 331 330 328 327 328 326 325 324 325 325 325 325 326 326 326 326 325 326 324 323 323 323 325 326 327 326 326 326 325 323 321
300 303 303 303 302 302 304 304 302 301 301 299 303 305 297 298 306 313 316 313 314 316 315 317 323 324 325 326 326 328 328 328 327 326 327 328 328 328 328 328 328 328 328 328 329 331 332 334 334 335 334 335 336 336 337 336 335 335 334 333 331 330 330 328 328 329 328 327 325 325 325 325 324 323 322 323 323 322 322 322 322 322 322 321 321 321 321 322 322 323 322 322 323 322 324 323 321
303 304 305 306 306 306 306 303 301 300 298 294 301 303 295 296 304 305 311 309 311 315 318 320 323 323 324 324 326 327 326 326 326 328 328 329 329 329 329 328 328 327 328 328 329 331 332 331 332 332 332 333 334 334 334 334 334 333 332 331 330 328 328 328 328 326 326 325 324 323 323 322 321 321 321 320 321 320 320 321 320 320 320 319 319 319 319 319 321 321 321 321 321 320 320 319 318
306 303 301 302 304 303 304 302 301 299 291 294 302 304 300 292 305 307 306 306 312 312 317 321 323 324 325 326 324 324 324 325 325 326 328 328 328 327 327 326 326 327 329 330 330 331 330 329 329 329 329 330 331 332 332 332 331 331 330 329 328 327 326 326 325 324 324 323 323 322 321 320 320 319 320 320 320 319 319 319 319 318 318 319 318 318 318 318 319 320 320 321 320 318 317 317 317
303 301 298 298 298 302 301 299 300 291 289 297 302 303 303 292 298 307 310 312 313 312 314 318 320 321 323 324 324 323 324 325 325 325 325 325 325 325 326 326 326 327 328 327 328 328 328 328 328 326 328 328 328 329 330 328 328 327 327 326 325 326 325 323 322 321 322 321 322 320 319 319 318 318 319 318 318 318 318 317 318 317 316 317 316 318 318 318 319 317 317 318 318 318 317 317 316
301 300 298 293 291 293 288 294 288 289 290 298 301 302 299 297 301 307 311 311 310 312 314 319 320 321 322 323 322 322 324 325 323 323 323 324 324 323 324 325 326 326 325 326 326 326 326 326 326 326 325 326 326 326 327 327 325 325 325 324 323 323 323 322 321 320 320 319 319 319 318 316 317 316 316 316 316 316 316 316 316 314 315 315 316 316 316 317 318 316 315 316 316 316 315 316 314
298 297 295 292 288 287 284 288 291 292 296 301 300 303 297 302 303 309 310 312 313 316 318 319 321 322 322 321 322 322 323 322 322 323 323 324 324 324 324 324 323 323 324 324 324 325 325 325 325 325 324 325 325 325 325 324 323 323 324 323 322 322 321 321 320 319 319 319 318 317 317 316 315 316 315 315 315 315 315 315 315 315 315 314 315 315 316 316 316 313 314 314 314 316 316 316 315
298 301 299 295 294 289 283 288 285 288 292 296 301 296 293 295 300 310 314 314 314 316 320 321 320 323 323 321 321 321 321 322 322 323 322 324 324 323 322 322 322 322 323 323 324 324 323 323 323 323 322 323 323 322 323 322 321 322 322 322 321 320 319 318 318 318 318 317 316 317 317 316 315 315 313 314 315 315 314 314 314 314 313 314 314 314 314 315 315 313 312 313 313 315 315 314 313
299 300 301 296 295 299 290 292 292 292 292 292 295 294 300 301 312 315 314 314 316 316 320 320 320 319 322 320 319 318 319 321 322 322 322 323 322 322 322 322 322 322 322 322 322 322 322 322 323 322 321 321 321 320 320 320 319 319 320 319 319 319 318 318 317 317 317 317 317 316 316 316 315 314 314 314 313 314 313 312 312 312 312 313 313 313 313 313 313 313 311 312 312 314 313 312 312
296 298 294 297 304 301 293 293 299 294 292 289 296 297 303 309 309 314 311 312 314 318 318 320 320 319 321 319 318 318 319 320 321 321 321 321 321 321 322 321 321 321 321 320 320 321 320 320 320 320 320 320 320 319 319 319 318 318 317 317 318 318 317 316 315 316 316 316 316 316 314 314 315 314 313 314 313 312 312 312 312 311 311 312 313 312 312 312 312 312 311 310 311 312 312 311 311
298 293 297 303 305 303 297 288 291 290 287 288 296 294 296 298 294 309 311 310 313 316 316 319 320 319 318 317 317 318 320 321 321 322 321 321 321 322 322 321 321 321 321 321 321 321 321 321 321 320 319 317 317 317 317 316 316 315 315 315 316 316 316 316 315 315 316 316 315 315 314 313 313 313 312 312 312 312 311 311 311 310 311 311 312 312 312 311 311 310 311 311 311 311 311 311 311
299 297 304 296 290 290 297 292 285 285 285 288 293 296 296 298 299 304 307 308 311 315 318 318 317 317 317 317 318 319 321 321 321 320 319 320 321 321 320 320 321 321 320 320 320 320 320 320 320 320 318 317 316 316 316 315 315 315 315 315 315 315 316 315 315 315 315 314 313 312 312 311 312 312 312 311 311 310 310 310 310 310 310 310 310 311 311 311 311 310 310 310 310 310 310 309 310
303 304 299 302 300 296 292 292 295 293 286 287 289 295 290 301 305 305 306 308 311 313 311 317 317 317 317 317 318 319 320 320 320 319 319 319 320 321 320 320 319 319 319 319 319 319 318 318 318 318 317 316 316 315 314 313 314 314 314 315 315 314 314 314 314 314 313 312 311 311 311 310 310 311 310 311 310 309 310 310 309 309 309 309 309 309 310 310 310 310 309 309 309 309 308 308 309
295 297 296 297 300 302 300 301 295 292 288 288 288 288 295 302 308 308 307 308 312 313 315 317 317 317 317 318 318 319 319 319 319 318 318 318 318 319 319 319 318 318 318 318 318 318 317 317 317 318 315 315 314 314 313 313 313 313 313 313 313 313 313 312 312 311 311 311 311 311 310 310 310 309 310 309 309 309 309 309 309 308 307 308 308 309 309 309 309 309 309 309 309 308 308 308 309
297 296 295 297 295 294 290 289 299 297 293 288 287 286 297 305 311 311 310 310 311 314 315 315 318 318 318 318 319 319 319 319 319 319 318 318 317 317 317 317 317 316 316 316 317 317 317 317 316 316 314 314 314 312 312 312 312 313 312 312 312 312 311 311 311 310 310 310 310 309 310 310 310 309 309 308 308 309 309 309 308 307 307 307 307 307 308 309 307 308 308 308 309 308 307 307 308
Wind_Speed
14 11 8 9 8 9 10 4 6 4 7 11 11 11 12 11 6 6 10 13 7 10 5 8 6 7 8 9 12 10 10 10 9 10 4 6 9 12 14 16 17 16 16 14 13 13 13 14 15 16 16 16 16 15 15 15 15 13 13 13 12 11 11 11 10 10 9 9 10 10 10 11 11 12 11 11 11 12 11 11 11 11 10 13 13 14 14 13 12 12 13 13 12 12 12 11 11
10 7 8 8 8 7 5 4 5 9 9 12 13 13 13 15 10 12 15 10 6 7 7 8 7 6 6 9 9 6 13 12 9 6 9 8 11 11 14 16 17 16 15 14 13 13 13 14 15 16 16 16 15 15 15 15 14 14 13 13 12 12 11 11 10 9 9 10 10 11 11 11 12 12 12 12 13 12 11 12 9 11 12 12 12 13 12 12 11 11 11 11 11 11 11 11 10
9 8 8 8 8 7 8 8 9 9 11 12 10 12 12 11 14 12 13 5 5 4 5 5 5 5 8 3 10 9 8 7 9 10 9 11 12 10 14 17 16 15 15 13 13 13 11 13 14 15 16 16 16 15 15 15 14 13 13 13 13 12 11 11 10 9 10 11 11 11 12 12 12 13 13 13 13 12 10 11 10 12 12 12 12 12 12 11 11 10 10 10 9 10 10 10 9
11 9 8 6 8 5 8 7 10 10 12 12 11 13 9 10 10 15 9 4 3 4 3 4 6 8 9 8 8 9 9 9 9 7 8 9 9 13 15 17 16 14 14 13 13 12 12 14 14 15 16 16 16 15 14 14 13 13 13 13 13 12 11 10 10 11 11 11 11 12 13 13 13 13 13 13 13 13 13 12 12 12 12 13 12 11 11 10 9 9 9 8 8 8 9 9 9
10 8 6 7 8 9 8 8 10 9 13 9 11 10 12 5 9 13 5 3 2 6 1 4 6 7 6 3 7 4 7 10 6 4 6 11 15 15 16 16 14 14 14 14 13 13 14 17 15 14 14 16 16 15 14 14 13 13 13 13 13 12 11 11 11 12 11 12 12 13 13 13 13 13 13 13 14 13 13 13 12 11 12 12 12 10 10 9 8 8 7 7 6 6 7 7 7
9 8 5 7 7 6 7 11 12 14 14 13 15 14 17 15 15 9 3 2 5 4 8 7 7 1 3 7 6 6 4 5 7 9 10 12 17 17 16 14 14 14 14 15 13 11 13 17 15 13 14 16 16 15 14 14 13 13 12 13 13 13 11 12 12 13 12 13 13 13 14 13 13 14 14 14 13 13 13 13 12 11 11 11 11 10 9 8 8 7 6 5 5 5 4 5 7
7 6 6 7 9 8 11 13 15 15 14 15 14 15 15 17 7 5 9 8 6 7 4 8 5 2 8 9 11 10 9 8 8 10 14 15 17 15 13 13 13 16 17 13 12 13 16 14 14 13 14 14 15 15 13 13 13 12 12 13 13 12 12 12 12 13 13 13 13 14 14 13 13 13 13 13 13 13 13 13 12 11 11 10 10 9 8 7 7 7 5 5 4 3 3 3 5
7 8 5 8 8 7 11 13 15 14 15 17 18 20 12 13 9 7 12 11 7 6 5 6 5 7 6 8 6 6 6 7 16 16 20 15 17 16 14 12 14 15 14 13 13 12 16 13 14 14 14 14 15 14 14 13 13 12 12 12 12 12 12 13 13 13 13 14 13 13 13 13 13 13 13 13 13 13 12 12 11 11 10 10 9 9 8 7 7 6 5 4 4 3 3 3 5
7 8 7 9 12 10 14 15 14 14 17 16 18 17 15 13 15 9 11 8 8 9 6 4 6 7 7 5 11 9 6 10 14 14 18 17 17 16 11 13 14 12 14 14 14 13 14 13 14 13 15 14 14 14 13 13 12 12 12 12 12 12 13 13 13 14 14 13 13 13 14 13 13 13 12 12 12 12 11 11 10 10 9 9 8 7 7 6 6 6 5 4 4 3 4 3 5
8 7 8 8 9 15 15 15 16 13 15 17 17 17 15 12 12 11 11 12 11 9 8 9 7 8 12 12 8 4 7 10 13 15 15 16 16 15 14 14 15 17 15 14 14 13 12 16 13 12 12 13 13 13 12 11 11 11 11 12 13 12 13 13 13 13 13 13 13 12 12 12 12 12 11 12 11 10 10 10 10 9 9 8 7 6 6 6 5 5 4 4 4 4 3 4 5
8 8 8 11 13 14 14 15 16 16 17 17 14 10 11 9 8 8 10 12 11 11 8 6 9 10 14 9 5 4 9 10 13 15 16 15 15 15 14 13 15 16 15 16 15 13 13 13 16 12 11 12 11 10 10 11 12 11 11 12 13 14 13 13 13 13 12 12 12 12 11 11 11 11 11 10 10 10 10 9 9 8 8 8 6 6 5 5 4 4 4 4 4 3 3 3 5
10 10 8 12 14 15 15 15 16 15 19 18 6 7 10 13 7 10 11 12 10 14 11 8 7 11 14 11 5 7 11 11 11 13 15 14 12 14 13 12 15 14 15 17 16 14 14 14 13 15 13 13 12 12 12 12 12 11 12 12 12 13 13 13 12 12 12 11 11 11 11 11 11 11 11 10 10 9 8 8 8 7 8 7 6 5 5 4 3 3 3 3 4 2 2 2 4
11 10 12 12 12 14 16 18 17 19 15 13 3 11 5 4 7 7 9 10 9 11 13 11 6 9 9 9 7 9 12 11 13 13 13 11 12 11 11 14 13 14 14 16 16 16 15 14 13 12 14 16 14 14 12 12 12 12 12 11 12 13 14 13 12 11 10 11 11 11 11 11 11 11 10 9 9 8 7 7 7 7 7 6 6 5 4 3 3 2 2 3 2 2 1 3 3
10 10 10 13 12 15 16 16 14 12 12 10 13 6 6 3 5 7 7 10 11 12 8 11 11 9 15 11 9 10 11 13 13 12 10 11 12 11 12 12 13 14 14 14 15 16 15 14 13 13 14 12 12 13 13 12 12 11 10 11 12 13 13 12 11 10 10 10 10 10 10 10 10 9 9 9 8 7 6 6 6 5 5 6 5 4 4 3 1 2 2 2 2 1 1 3 3
11 9 10 11 12 13 13 13 13 13 11 14 9 6 5 6 8 6 8 9 10 7 8 9 10 11 8 11 7 10 14 15 14 12 12 11 13 12 12 12 12 13 13 13 14 14 14 14 14 13 13 12 12 9 9 10 11 11 10 11 12 13 12 12 11 10 10 9 9 9 9 9 10 10 9 8 8 7 9 7 5 5 5 5 4 4 3 2 2 1 1 2 2 2 1 4 4
9 9 9 10 12 14 11 12 13 14 10 5 10 5 1 5 5 7 9 10 8 5 10 10 10 7 14 11 15 15 16 17 14 13 13 13 13 12 13 13 12 12 11 12 10 10 12 12 11 11 11 12 10 10 10 10 9 10 10 11 12 13 12 11 11 11 11 10 9 9 9 7 8 8 10 8 8 8 4 6 6 6 5 4 4 4 3 2 1 1 1 1 2 3 2 5 6
8 9 10 10 13 13 11 12 8 10 11 11 5 3 4 4 4 5 4 3 11 6 7 3 9 8 8 8 19 20 18 17 15 15 13 12 11 11 11 11 10 10 9 10 9 10 11 11 11 9 10 11 12 11 10 9 9 10 10 11 11 12 11 12 12 12 10 10 9 9 8 6 5 5 6 5 11 7 8 8 6 5 4 4 3 3 3 2 1 1 1 3 3 3 3 5 7
9 10 10 13 11 14 11 15 9 5 10 10 5 4 3 7 4 5 6 8 11 5 10 6 9 19 17 15 20 21 20 19 17 17 14 11 11 11 11 11 11 11 9 9 9 9 9 9 9 10 9 11 11 10 8 8 8 10 10 10 10 11 11 11 10 9 9 7 8 7 5 3 2 4 4 6 5 9 8 8 7 6 6 5 4 4 4 4 3 2 2 4 5 5 6 6 7
10 9 11 12 12 10 15 7 8 3 8 4 4 3 4 7 3 3 8 9 11 9 11 11 13 15 18 16 17 19 19 18 17 16 15 15 12 13 12 10 11 11 11 8 9 6 8 8 10 9 10 10 11 10 8 8 10 8 9 8 7 8 10 9 8 7 6 5 5 2 1 2 1 3 1 2 6 7 7 7 7 8 9 8 9 8 8 7 6 4 4 5 7 8 7 6 5
13 11 12 13 12 13 2 2 5 2 8 2 4 2 2 5 5 2 9 9 11 12 12 12 14 14 14 18 17 17 18 18 16 16 15 14 12 13 12 12 12 11 11 10 10 8 9 8 9 9 10 9 8 8 8 8 8 8 7 6 6 6 6 6 6 5 4 3 3 2 1 1 2 3 5 2 5 5 6 8 9 9 9 10 10 8 9 8 9 8 7 7 8 8 7 7 6
10 13 12 10 13 18 7 4 4 2 3 4 3 2 7 7 7 5 7 10 12 11 13 13 15 16 18 17 17 16 17 17 16 16 14 14 13 11 11 10 10 10 10 11 10 10 10 10 9 9 9 8 8 7 7 7 7 7 7 7 6 6 6 6 5 4 3 3 3 3 2 1 1 3 2 2 2 2 3 3 5 5 5 6 11 7 8 7 8 7 7 7 7 7 8 5 3
9 15 15 15 10 8 1 6 4 4 1 3 3 6 5 5 7 7 9 11 9 11 13 14 15 18 21 18 17 17 18 17 16 15 15 14 14 13 10 10 11 10 10 9 10 10 10 9 8 8 8 8 8 8 7 7 7 6 6 6 6 5 5 4 4 4 4 4 2 3 2 1 4 4 2 7 6 2 1 3 2 2 3 4 5 3 1 2 5 6 6 8 7 6 4 2 3
13 14 16 16 13 6 5 4 3 3 6 10 7 4 4 6 5 8 9 8 8 10 7 11 16 19 17 17 16 16 18 18 17 15 14 14 14 14 11 10 10 10 9 10 9 9 9 9 9 9 8 8 8 7 7 8 7 8 7 6 6 5 5 5 4 4 4 4 3 2 1 1 1 1 3 3 4 5 0 2 1 3 4 6 1 3 2 2 3 1 3 4 4 5 4 5 4
14 13 12 16 14 10 3 4 6 7 8 7 5 3 7 5 10 7 12 5 7 4 6 10 19 19 15 17 17 16 17 16 15 14 13 14 14 13 12 12 10 8 9 10 10 9 8 9 9 9 9 9 8 8 8 7 6 7 7 7 5 6 5 5 5 4 4 3 3 2 3 3 4 1 5 3 3 1 4 4 2 2 5 1 5 4 2 3 2 2 2 3 4 5 6 6 5
15 16 14 11 15 11 7 7 5 7 9 7 6 8 9 8 9 6 9 7 7 7 9 13 12 17 16 16 15 15 16 15 15 14 12 12 13 12 12 10 11 10 11 10 9 9 10 9 10 10 10 10 8 9 8 8 7 7 7 6 5 6 5 4 4 5 3 3 2 1 4 1 2 1 3 2 3 3 0 4 3 2 3 5 3 3 4 2 2 3 2 4 4 4 5 5 5
16 15 16 7 8 10 12 9 9 9 6 9 10 11 10 10 9 4 6 5 5 9 11 16 15 16 16 15 15 15 15 15 15 14 13 12 12 13 12 11 11 10 10 10 10 10 9 10 10 10 10 9 9 8 7 7 7 7 7 6 6 5 4 5 5 4 4 4 1 2 2 2 1 3 2 2 3 4 1 1 0 2 1 2 4 2 5 3 3 4 3 3 5 5 5 5 5
13 17 17 13 10 9 10 13 12 10 11 9 12 12 11 10 12 7 1 2 5 10 14 15 15 15 15 15 13 14 15 15 15 14 13 13 13 12 12 11 11 12 11 11 10 10 9 10 10 10 9 9 9 8 7 8 8 7 6 7 6 5 5 5 4 4 2 3 4 1 2 2 2 2 2 4 2 2 1 2 1 3 2 2 3 1 2 4 2 3 3 4 5 7 7 6 7
2 9 16 17 10 10 9 12 12 11 12 12 11 11 10 6 14 6 7 2 5 12 14 15 13 13 13 15 13 12 12 12 13 13 16 16 13 13 13 11 12 12 11 11 10 10 10 11 11 10 9 8 7 8 8 8 8 8 8 6 6 6 5 2 3 3 3 4 3 2 2 1 1 2 3 2 3 3 2 2 2 3 2 2 2 3 2 3 4 5 6 5 3 5 5 6 7
11 7 11 16 13 11 13 12 12 11 11 14 13 11 10 12 4 10 5 5 8 11 10 12 13 11 12 13 12 10 9 11 11 9 10 9 12 11 12 10 11 11 9 9 10 10 11 11 10 11 10 10 9 9 8 7 6 7 7 7 7 7 5 5 3 5 3 4 4 3 2 2 1 2 2 2 3 2 2 1 2 2 2 2 3 3 4 3 3 3 4 5 4 1 6 5 7
14 9 11 13 15 15 16 14 14 14 11 14 12 12 13 7 8 5 3 14 9 12 14 12 12 12 10 11 11 11 10 9 8 8 5 1 6 10 10 10 9 9 9 8 10 11 10 8 8 8 9 9 9 7 7 7 7 6 7 6 6 7 6 6 5 4 3 4 4 4 3 3 3 3 3 3 1 1 1 2 3 2 3 3 2 2 3 3 4 4 6 5 5 4 5 5 4
12 11 10 11 13 13 18 16 16 16 12 14 15 13 8 9 8 2 5 7 8 10 11 15 14 13 13 12 12 10 10 9 7 8 6 5 6 10 12 9 9 8 9 10 11 12 11 7 6 6 7 7 7 7 7 6 6 6 7 7 6 6 5 5 5 5 4 4 4 4 3 3 3 3 3 2 2 2 2 2 2 3 3 3 3 3 3 3 3 5 4 6 6 6 6 6 7
11 12 13 12 13 10 18 19 19 17 14 15 15 15 6 6 11 8 6 6 4 4 11 14 15 12 11 12 13 12 12 13 11 10 10 9 9 9 11 10 9 9 9 10 10 9 6 3 6 6 5 6 5 5 5 6 7 7 6 7 7 7 6 6 5 5 4 4 5 4 4 3 3 3 3 2 1 1 1 1 2 2 3 3 3 3 3 3 3 4 5 5 5 7 6 7 6
13 14 12 15 14 12 15 21 18 20 13 17 17 6 9 7 9 9 8 9 8 2 4 2 6 10 6 8 8 9 10 10 9 8 10 12 10 9 9 10 9 9 8 9 8 8 5 5 5 7 6 3 5 6 6 6 7 7 7 7 8 7 6 6 5 4 4 4 4 4 3 3 3 3 3 2 2 1 2 2 2 2 3 3 3 4 5 3 2 3 4 5 5 6 7 8 7
13 14 12 13 16 15 10 17 17 20 16 14 18 11 8 10 10 8 7 7 14 9 1 8 13 10 13 9 10 12 13 13 12 12 12 10 8 8 8 7 7 8 9 9 6 6 5 5 2 4 3 2 1 4 6 7 7 7 7 7 7 7 7 6 5 5 5 4 4 4 4 4 3 3 3 3 1 4 4 3 4 4 4 4 4 4 4 5 5 4 5 6 5 6 7 7 8
14 14 13 13 17 15 13 15 17 20 16 15 17 9 11 13 10 8 7 10 13 16 15 16 16 14 14 13 12 13 12 13 12 11 10 8 4 5 6 8 9 9 6 4 4 3 2 3 5 5 2 5 5 7 6 7 7 6 6 7 7 7 6 6 6 5 5 5 5 5 5 5 5 5 5 4 4 3 3 3 4 5 4 4 4 4 4 5 4 5 6 6 6 6 7 8 7
15 17 15 14 15 16 14 16 17 20 16 15 16 10 9 14 11 9 8 8 10 8 5 6 8 15 14 13 12 11 10 10 10 10 11 8 6 3 6 7 8 9 6 5 7 4 3 2 5 4 3 3 4 6 5 4 5 8 6 7 6 6 6 7 6 6 6 6 6 6 6 6 6 6 6 6 5 4 4 4 3 4 4 4 4 5 5 5 7 7 8 8 8 8 7 7 7
15 15 17 16 14 16 15 17 18 19 15 17 15 12 15 12 11 10 11 10 8 12 11 15 13 13 12 12 11 9 10 11 11 14 16 12 6 4 5 6 5 7 6 8 4 5 4 3 3 3 3 1 1 4 7 3 5 4 4 6 7 6 7 7 7 7 7 7 8 7 7 7 7 7 7 7 6 5 4 5 4 4 5 4 5 6 6 7 7 7 7 7 8 8 8 7 7
13 15 17 15 14 15 10 11 18 17 15 14 14 13 11 12 9 9 10 9 9 13 14 12 12 11 12 14 14 12 10 10 12 13 13 12 8 8 8 9 9 7 6 7 4 5 4 5 4 4 1 3 2 7 5 2 2 1 4 6 6 7 8 8 8 7 7 7 7 7 7 7 7 7 7 7 7 7 6 5 5 6 7 6 6 6 7 7 8 8 7 7 7 8 7 8 7
15 13 15 16 14 10 13 11 15 15 16 9 13 12 13 12 10 9 10 10 7 9 10 9 10 11 10 13 13 13 12 12 13 13 14 15 15 12 8 7 8 8 7 7 8 7 7 6 3 3 2 2 1 7 6 0 2 4 5 6 7 8 8 7 8 7 6 7 7 7 7 7 8 7 8 8 8 9 9 8 7 7 8 8 7 7 8 8 9 9 10 9 9 8 8 6 8
11 12 14 15 16 14 11 13 17 14 12 10 12 12 11 8 4 8 10 11 11 10 8 10 11 12 13 13 11 12 13 14 16 14 14 15 15 10 11 6 6 6 8 7 6 5 3 4 5 1 2 3 3 3 1 5 6 9 8 8 9 8 8 8 8 7 7 7 8 7 8 8 8 8 9 10 8 9 9 9 8 8 8 9 8 8 8 9 10 9 10 10 9 9 9 10 9
14 14 13 15 14 13 11 11 14 15 9 11 13 8 8 11 12 12 12 8 7 7 11 10 10 11 12 12 13 12 13 14 15 15 16 14 14 12 11 10 6 6 6 7 6 5 3 5 4 5 3 6 2 4 1 6 8 10 9 10 9 9 8 6 6 6 6 6 7 8 8 9 9 8 8 9 8 9 9 8 9 9 9 9 8 7 7 8 8 8 8 8 10 9 9 9 10
13 16 14 14 12 16 12 15 17 12 14 14 16 9 8 10 10 9 9 8 9 9 13 13 13 12 14 14 14 13 13 12 14 16 17 17 17 15 13 11 9 7 8 6 4 4 4 6 8 6 4 3 5 6 5 3 4 7 8 8 8 7 6 6 6 6 6 6 7 6 6 7 6 6 7 7 8 6 6 7 7 7 7 6 6 5 6 6 7 8 8 7 8 9 9 8 8
12 13 14 13 18 16 18 18 17 15 15 15 18 13 7 9 10 11 11 11 13 13 13 14 13 12 12 12 13 12 12 12 12 14 15 17 17 17 15 11 10 9 8 8 7 5 6 8 6 8 6 3 3 2 6 3 4 6 6 6 7 7 7 6 5 5 6 6 5 6 6 8 9 8 8 8 7 7 6 7 7 6 6 5 5 5 5 6 6 6 7 7 7 8 9 8 9
11 12 11 11 13 18 16 19 16 11 11 12 17 15 7 8 10 13 14 14 16 15 12 12 12 14 13 12 13 13 12 12 12 13 14 15 15 17 17 14 11 11 11 9 6 5 5 7 9 3 3 5 5 6 6 6 6 7 7 7 7 7 7 7 6 6 6 6 6 6 5 6 8 8 8 7 7 7 6 6 7 6 6 6 6 7 7 7 7 7 7 8 7 7 7 7 8
9 13 14 8 10 13 15 15 14 12 13 13 15 19 14 10 12 14 11 13 15 15 16 15 14 15 14 14 12 12 12 12 12 12 12 13 14 15 16 15 14 12 10 9 7 6 4 5 5 7 7 6 7 8 8 8 8 7 6 6 6 5 6 5 5 5 6 6 6 5 5 6 7 7 7 7 7 7 7 7 7 7 7 7 6 6 6 7 8 7 8 8 8 8 7 9 8
12 16 14 9 8 12 15 14 14 14 12 11 15 18 13 8 12 15 14 13 14 14 16 17 15 15 15 13 13 12 12 11 10 12 12 13 14 14 15 16 14 12 11 11 10 8 7 6 7 8 8 6 7 8 9 9 8 7 7 6 7 6 5 5 5 5 5 5 6 6 5 6 5 6 6 7 7 7 7 7 7 8 8 7 7 7 7 8 7 7 7 7 8 8 7 7 7
9 11 15 11 11 11 11 11 11 10 11 14 16 18 15 11 14 14 13 12 14 13 12 13 14 16 15 14 14 12 11 12 11 12 13 13 14 15 15 14 15 13 11 11 10 9 9 8 9 10 9 7 7 8 9 9 8 7 6 7 7 6 6 5 5 5 5 5 5 6 6 5 6 6 5 5 7 7 7 8 7 7 7 7 7 7 7 7 6 6 7 7 8 8 7 7 7
13 10 13 12 11 9 10 10 12 12 11 14 16 16 19 15 10 12 12 11 14 15 15 16 17 18 15 14 13 13 13 12 13 12 13 14 15 14 14 15 15 14 11 10 9 9 9 9 9 10 9 9 8 8 9 9 8 8 8 7 6 5 5 5 5 6 5 6 6 6 5 5 5 5 5 6 6 7 7 7 7 7 7 7 7 6 6 7 6 6 7 7 6 7 7 7 7
12 13 15 14 11 8 10 11 12 13 11 12 17 16 13 17 7 16 18 18 21 19 14 15 18 17 16 15 16 13 13 15 13 12 12 13 14 14 15 15 15 13 11 10 10 9 9 9 9 10 10 9 9 9 8 9 8 7 7 7 6 5 5 6 6 6 6 6 5 6 6 5 5 5 5 6 7 7 6 7 7 7 6 6 7 7 6 7 7 6 7 7 7 7 7 7 7
15 15 15 14 13 12 11 13 8 9 11 10 14 17 14 7 10 16 20 21 18 17 18 19 16 16 17 16 16 13 13 13 13 13 13 13 14 14 14 14 13 12 11 10 8 9 9 8 8 9 9 9 8 8 8 9 8 7 7 6 6 6 6 7 6 6 6 6 6 6 6 6 5 6 6 6 6 6 6 7 7 7 7 7 7 7 6 7 7 6 7 7 7 6 7 8 7
14 14 14 13 12 10 10 11 11 12 11 10 12 17 10 12 6 11 12 16 18 16 14 16 18 15 14 15 14 13 13 12 13 13 13 13 14 14 13 13 13 13 12 10 9 10 9 8 8 9 8 9 8 8 7 8 7 8 6 6 7 6 6 7 7 7 7 7 7 7 6 5 6 6 6 6 6 6 6 6 7 7 7 7 7 7 6 6 7 6 7 7 7 6 7 7 7
13 13 12 13 13 9 10 6 9 12 10 11 8 3 4 3 3 2 9 14 14 16 15 16 18 18 16 15 14 14 12 11 12 14 13 13 14 14 13 13 13 13 12 10 11 9 8 8 8 9 8 8 8 8 7 7 7 7 7 8 8 7 7 7 7 7 7 7 8 7 7 6 6 6 6 6 6 6 6 6 6 7 7 7 7 8 8 7 7 6 7 7 8 6 6 9 7
13 14 15 13 11 12 5 3 5 1 7 9 5 10 8 5 5 5 11 14 15 17 16 17 17 19 18 16 14 14 14 13 13 14 14 16 14 14 14 14 13 13 12 11 10 9 9 9 9 8 8 8 7 7 7 7 8 8 8 7 8 8 8 9 8 9 9 8 8 7 7 7 6 6 5 5 5 6 6 6 6 6 7 7 7 8 8 7 7 6 7 8 8 8 7 8 7
11 15 13 11 12 12 8 6 6 6 10 6 11 14 12 10 6 10 12 15 17 17 20 19 19 20 17 15 15 15 15 15 15 15 15 15 15 15 14 13 14 13 12 12 12 10 9 8 8 8 8 8 7 7 7 7 8 8 8 8 8 8 8 9 9 9 8 7 7 7 6 6 6 5 5 4 5 5 6 6 6 6 6 7 7 7 7 8 7 6 7 7 7 7 7 7 7
11 13 8 13 11 13 10 5 10 11 9 7 12 13 13 13 9 15 15 16 17 18 19 19 20 19 17 16 17 16 16 15 15 16 14 14 14 14 14 14 13 13 12 12 11 10 9 8 7 7 9 9 8 7 7 6 6 6 7 8 9 8 8 9 9 8 8 8 8 7 7 6 6 5 5 5 5 6 6 5 5 6 6 7 7 7 7 7 7 7 7 6 8 8 7 7 7
17 13 15 14 8 11 13 9 7 9 8 8 13 14 10 13 10 19 18 17 18 18 19 19 21 20 17 16 16 17 16 16 16 15 15 14 15 15 15 14 14 13 13 12 12 10 10 9 8 8 9 9 9 9 8 8 7 7 8 8 9 9 9 8 8 8 8 8 8 8 7 7 6 5 5 5 5 6 6 6 6 6 7 7 8 7 7 7 7 7 7 7 8 9 9 8 8
14 10 13 13 7 7 9 7 10 10 8 9 6 10 9 10 12 16 18 19 18 18 19 18 18 17 17 17 16 15 16 16 16 15 15 16 16 15 15 14 13 13 12 12 12 12 10 9 8 10 10 10 10 9 9 8 8 9 10 10 10 9 10 9 9 9 9 8 8 7 7 6 6 6 5 6 6 6 6 6 7 7 8 8 8 8 7 7 7 8 7 7 8 9 9 8 8
12 10 11 12 12 13 13 11 11 10 10 8 9 8 8 6 10 13 14 15 17 19 19 19 20 19 18 16 16 15 14 17 17 17 17 16 16 16 15 14 13 12 12 13 12 11 11 9 9 10 10 9 10 9 9 9 9 9 10 10 9 9 9 9 9 9 8 8 7 7 6 6 6 6 6 6 6 5 6 7 7 9 9 9 9 9 8 7 8 8 7 6 7 9 9 9 8
Wind_Direction
284 270 284 293 283 273 281 275 286 306 293 278 288 274 281 299 272 295 269 267 233 83 334 330 325 300 300 324 325 68 21 358 9 316 56 122 146 139 135 135 125 123 126 124 124 129 128 123 122 121 120 118 116 115 117 117 116 118 119 121 121 120 115 111 111 105 99 97 91 94 97 94 92 86 82 79 76 68 69 87 95 101 106 99 98 101 106 105 101 103 102 98 96 93 91 93 91
283 296 283 269 272 284 281 64 292 280 258 269 268 270 272 273 292 273 277 342 1 1 10 323 310 307 297 301 283 309 69 48 37 67 91 127 124 122 132 123 120 130 125 125 129 129 125 125 123 123 123 120 119 119 118 118 118 119 121 121 120 118 116 113 112 108 103 97 96 97 92 91 87 84 80 77 77 76 77 79 87 93 94 96 98 102 103 106 106 103 101 99 96 96 94 94 94
301 292 272 239 247 251 292 262 262 265 259 252 249 253 257 269 270 279 287 356 4 341 338 311 316 270 271 230 250 270 100 72 97 105 104 121 129 119 132 127 123 123 127 130 126 124 124 125 126 126 124 123 122 120 119 120 123 123 122 122 121 119 117 116 114 109 102 98 99 98 93 90 88 85 84 82 84 84 87 102 95 99 98 95 96 95 98 102 106 107 105 104 99 97 99 96 100
279 276 282 301 287 252 263 275 255 255 263 266 272 262 236 254 272 272 328 5 282 303 256 251 285 70 299 284 5 92 87 90 49 88 128 144 127 135 129 119 121 130 138 132 126 119 119 128 130 128 127 125 124 122 121 122 125 126 123 122 121 119 117 120 115 109 105 104 102 97 92 86 85 86 86 87 85 82 81 85 96 89 89 91 93 94 98 100 101 97 99 100 100 102 104 102 102
268 259 255 273 289 270 277 265 268 259 256 257 263 266 264 234 261 264 357 82 222 275 256 284 266 124 3 325 328 330 76 88 108 184 100 101 120 129 128 132 135 141 138 133 122 112 121 130 129 129 129 127 126 125 121 120 123 124 122 122 120 118 121 118 112 107 107 107 101 98 92 90 88 88 87 86 83 82 83 87 93 97 94 91 89 88 88 89 92 94 89 90 95 98 104 117 111
250 266 215 258 256 343 285 264 257 256 264 277 276 273 282 293 281 288 307 217 291 264 281 280 282 233 174 64 48 111 201 207 146 119 117 131 126 129 132 139 143 145 132 108 113 121 126 130 128 129 131 131 130 127 123 122 119 120 119 119 118 120 119 112 109 107 105 103 99 95 93 93 91 89 86 83 82 82 84 85 85 88 91 88 91 92 90 87 86 86 85 84 86 94 113 123 139
245 232 219 227 243 249 259 261 263 268 258 258 262 262 257 261 280 346 271 268 241 270 231 275 250 303 240 118 80 49 52 103 174 99 116 125 126 134 140 147 149 129 112 122 120 119 123 128 128 131 134 133 130 129 125 121 118 118 118 118 118 119 114 109 108 108 105 102 99 95 93 92 93 89 87 85 84 83 83 85 88 90 93 92 86 84 85 85 83 79 74 66 65 70 110 154 154
262 272 234 236 263 220 234 253 260 258 261 257 264 270 274 262 294 267 272 274 265 246 202 250 271 270 81 188 89 82 40 18 90 113 119 131 136 140 144 138 133 125 124 118 116 112 125 124 129 132 135 135 131 125 124 122 122 119 119 120 117 115 112 110 106 104 104 102 100 97 94 92 89 88 87 86 85 85 86 86 88 88 87 85 83 82 83 86 85 81 71 59 48 69 92 139 172
228 235 259 272 257 257 265 261 260 252 270 264 259 262 282 277 287 279 262 262 255 263 275 181 233 246 116 48 81 86 41 77 107 117 124 139 140 137 133 134 134 131 127 119 115 126 128 125 128 131 135 132 130 126 126 125 123 122 119 118 114 110 108 108 105 104 103 101 101 98 95 92 90 88 85 84 84 84 85 86 86 87 88 86 87 86 84 85 82 77 69 52 51 61 83 113 152
235 218 229 236 259 261 261 256 259 253 248 255 256 255 241 245 248 240 261 255 247 251 242 246 206 237 85 98 115 97 102 110 122 129 137 136 133 135 140 145 139 124 119 120 128 128 124 129 126 127 129 128 127 128 126 123 122 120 117 116 113 112 110 107 106 106 106 103 99 96 93 89 89 87 86 85 85 85 84 85 86 87 87 86 83 83 79 77 82 74 59 46 42 61 79 96 134
239 201 253 259 250 257 255 263 259 261 260 255 248 250 274 271 249 247 242 255 255 249 239 223 209 220 129 102 70 93 122 130 142 134 134 132 138 143 139 137 132 128 129 132 129 125 131 130 126 119 122 121 114 107 102 100 107 113 112 115 119 117 112 111 109 109 105 102 98 98 95 93 90 88 85 84 84 83 86 86 85 84 80 76 73 70 74 75 74 71 53 43 44 61 75 105 119
240 226 205 237 248 256 261 266 263 263 259 261 235 253 241 248 233 238 243 243 235 247 245 181 230 227 126 134 134 136 130 146 135 131 132 140 142 134 134 136 134 137 137 132 129 134 132 131 131 126 116 105 101 96 99 105 109 112 115 119 121 117 115 114 112 109 106 103 99 96 93 92 89 86 83 82 81 84 86 89 87 82 80 76 71 66 66 68 71 63 49 39 33 47 108 113 126
240 238 229 243 248 253 259 260 265 271 283 281 296 238 178 170 230 243 256 254 246 244 226 225 251 221 130 118 130 140 141 142 133 137 140 142 129 127 131 134 139 134 138 136 136 134 136 136 130 133 116 109 108 109 109 115 115 114 117 122 122 120 119 116 114 111 105 103 103 98 96 94 91 89 88 85 83 87 89 90 92 85 80 82 75 66 66 70 71 61 40 26 28 29 139 134 154
229 239 244 248 249 256 259 262 267 261 253 258 250 89 130 178 229 255 253 251 238 231 232 233 230 105 105 113 141 152 142 139 131 136 131 131 130 129 130 135 135 139 143 139 138 141 141 135 131 126 133 129 123 115 110 107 112 114 118 125 125 121 118 117 114 112 107 109 108 108 107 105 102 101 101 97 96 96 98 91 83 84 93 86 83 79 68 65 63 71 25 8 356 359 252 173 167
236 234 251 259 260 255 249 256 254 255 258 256 88 145 119 221 257 252 265 262 254 232 226 229 222 202 167 157 143 163 158 144 135 135 133 123 128 132 141 136 138 142 142 137 140 144 139 135 133 139 136 134 137 130 130 114 110 116 121 127 127 122 119 120 118 115 115 110 113 118 120 124 125 124 123 125 124 121 111 107 87 96 90 85 94 98 89 71 37 31 49 339 321 330 258 199 184
237 240 236 248 244 249 246 241 239 258 266 260 97 80 228 261 212 250 237 249 279 220 233 196 192 266 142 186 154 153 154 142 139 135 134 132 135 142 142 143 140 139 135 135 134 130 130 136 137 141 141 140 138 129 128 133 119 115 120 130 133 130 129 128 130 131 129 132 136 140 143 142 143 138 143 143 136 125 124 82 105 89 79 87 79 89 95 81 78 25 1 324 312 285 239 200 191
232 253 242 231 247 238 244 251 239 233 239 98 147 187 253 265 117 238 296 269 249 214 190 175 186 204 149 157 148 144 150 136 140 138 137 142 150 149 149 143 141 136 133 130 130 128 127 133 134 132 131 137 133 127 126 128 130 131 131 127 130 132 141 148 144 142 145 151 159 161 163 185 151 130 166 134 160 130 115 132 129 116 102 97 103 95 114 117 125 131 294 309 279 276 247 199 192
210 220 231 232 236 241 239 247 243 247 270 127 159 198 228 243 218 208 180 222 246 152 212 153 82 53 92 89 132 144 140 140 145 145 148 151 152 150 147 146 146 138 134 132 125 120 128 130 128 135 134 137 131 127 122 128 150 163 144 144 146 149 159 157 159 160 163 157 171 162 192 193 207 151 159 173 161 128 141 137 142 138 138 129 124 146 139 145 177 196 251 269 282 252 232 197 178
211 218 223 237 228 242 249 271 243 248 237 139 84 132 240 255 316 195 234 190 214 193 201 175 108 101 99 124 136 137 142 138 150 150 151 152 153 151 146 147 143 142 137 127 117 122 132 134 137 141 138 132 127 127 129 138 150 153 152 148 144 163 159 172 168 167 158 161 158 161 133 133 213 138 119 19 75 104 131 156 149 163 159 167 180 173 168 169 174 190 235 257 260 257 237 223 185
216 232 225 230 248 251 319 344 295 277 336 74 224 122 238 257 259 171 239 204 200 209 186 153 129 126 130 131 136 147 147 146 151 153 155 154 154 147 145 147 147 145 137 137 128 146 139 135 128 130 129 132 139 133 139 149 149 153 155 158 155 161 164 173 164 157 155 141 145 118 155 150 118 88 68 24 156 151 147 179 182 188 188 186 189 195 193 188 176 192 196 238 247 232 219 219 202
195 233 238 237 225 244 194 240 261 271 258 262 233 334 258 224 232 232 234 216 201 203 186 173 161 148 140 141 146 153 149 152 155 157 154 151 148 148 144 147 146 140 137 134 141 134 134 135 133 132 139 136 136 140 146 147 151 165 147 155 160 166 162 163 165 155 147 147 141 152 101 103 137 109 168 226 192 201 162 193 192 213 201 205 187 210 198 174 189 177 182 207 221 233 231 223 243
223 227 239 249 252 305 19 215 212 229 135 268 242 245 256 30 254 239 229 233 194 206 179 185 167 151 146 150 152 157 156 160 160 158 157 149 145 140 140 150 140 134 140 140 132 132 134 134 137 135 141 147 146 156 145 141 165 143 142 158 158 157 159 162 155 149 151 160 134 129 143 51 9 352 180 192 185 148 94 269 287 256 265 215 189 226 160 179 197 194 175 190 220 242 265 285 247
234 226 234 240 261 258 238 194 175 185 204 217 219 238 318 270 262 221 227 226 53 351 187 179 151 135 143 146 154 161 162 160 159 158 151 147 144 146 144 147 148 147 148 132 136 131 133 135 139 145 146 147 154 141 137 158 156 148 158 154 150 148 154 161 156 141 133 135 134 108 109 3 313 269 317 328 334 73 178 226 111 301 315 318 277 277 148 212 274 201 224 220 243 251 249 244 231
226 241 214 232 242 226 232 215 133 213 236 221 243 305 252 244 250 202 224 108 130 91 76 78 123 129 148 146 157 161 160 157 154 150 147 145 141 138 144 148 148 146 138 144 136 138 137 141 143 148 151 152 144 148 166 146 136 144 147 149 159 141 153 149 138 144 129 136 149 163 90 199 195 99 322 356 353 35 197 221 114 253 270 240 275 266 196 221 223 293 304 274 227 238 241 241 243
217 234 238 229 217 214 216 216 198 211 209 221 234 240 231 230 251 176 203 129 133 116 119 113 143 144 154 145 156 161 158 152 147 146 145 142 138 138 143 144 148 138 141 143 138 139 145 145 153 153 150 150 148 162 157 148 148 151 148 151 141 152 149 146 127 142 149 101 107 157 125 344 53 331 211 203 216 289 110 288 100 254 254 255 316 318 332 324 249 255 262 274 246 236 243 231 244
221 228 236 223 232 224 227 225 226 210 212 216 217 229 227 226 224 79 1 77 122 136 123 142 137 144 146 149 161 160 154 148 146 147 147 138 134 143 144 147 145 146 150 146 147 143 145 150 152 151 154 151 153 164 148 144 147 149 151 144 139 161 141 121 150 139 120 168 183 120 46 10 192 182 239 227 260 221 253 234 85 283 215 304 276 82 273 332 332 296 279 261 288 283 246 238 227
198 219 235 225 212 226 210 225 211 207 225 195 224 219 222 207 222 146 78 11 149 160 135 134 140 145 153 145 161 152 148 148 145 140 135 142 142 147 147 148 152 146 151 149 149 144 146 152 149 153 151 153 159 151 154 155 151 144 147 142 153 141 132 137 142 143 162 126 140 43 88 118 332 40 305 322 233 295 342 294 155 216 266 89 290 49 20 282 323 275 272 314 343 303 322 321 290
73 243 221 230 216 224 214 215 215 202 207 213 218 227 218 188 226 189 146 220 213 155 148 138 137 149 149 147 153 139 140 140 139 144 143 151 152 151 155 160 150 148 150 153 147 141 153 153 149 154 152 161 158 151 158 156 153 147 151 145 142 119 141 156 128 14 133 112 92 107 88 12 346 41 342 284 342 317 343 344 351 340 334 5 360 351 322 346 302 351 330 305 273 275 293 301 309
223 214 231 219 215 225 220 211 209 202 211 199 211 235 206 209 133 47 6 153 249 132 144 151 146 149 138 145 133 130 131 132 136 146 138 154 148 148 157 152 138 152 150 154 127 142 155 152 153 157 162 164 161 165 160 154 152 149 149 150 137 155 165 127 119 147 121 97 101 92 67 78 13 30 29 6 331 3 0 303 343 0 346 1 352 342 320 299 295 249 232 246 251 305 289 310 294
229 202 236 214 215 222 216 217 211 196 213 189 192 224 208 142 72 25 61 310 213 158 168 147 143 136 123 100 93 92 89 94 75 56 352 350 150 147 141 130 145 156 145 141 131 157 154 154 154 157 168 164 167 165 163 153 156 153 152 142 137 151 141 141 148 125 131 103 100 86 86 51 41 39 23 28 354 359 44 358 6 6 9 347 321 331 312 319 316 317 314 325 304 294 281 249 240
216 209 217 237 211 220 204 206 203 204 195 194 201 234 172 116 116 171 150 210 234 173 135 139 139 132 127 116 101 88 69 62 120 166 177 239 172 149 143 135 155 147 154 143 161 152 154 138 151 155 162 168 169 165 172 149 157 160 142 139 149 138 131 123 123 116 118 131 114 100 73 64 43 59 57 20 25 338 17 29 349 17 5 337 321 15 320 326 316 320 314 313 323 309 293 296 301
210 212 213 219 239 209 194 191 199 204 182 197 208 234 136 152 151 164 175 129 17 251 152 157 145 135 116 122 129 129 141 161 172 163 163 167 160 147 155 151 155 146 153 149 152 143 101 138 150 151 161 171 171 159 186 159 166 151 135 131 144 135 127 120 120 120 117 119 117 104 92 83 72 72 48 46 1 40 15 352 37 8 346 323 339 335 310 323 339 314 323 314 314 309 308 303 306
205 219 209 211 215 231 183 182 191 203 178 198 210 197 109 152 174 154 154 163 142 207 243 69 71 94 109 132 135 132 144 147 156 166 167 153 153 158 163 153 151 144 139 137 132 91 155 184 167 152 170 155 173 199 179 160 160 139 133 134 128 128 119 117 116 117 107 92 86 93 102 93 82 62 81 68 30 16 42 6 53 8 302 316 325 339 329 335 315 326 317 310 304 302 304 303 296
202 204 223 210 207 222 187 165 192 195 200 194 203 225 175 145 169 147 146 147 137 165 115 151 154 146 166 162 148 149 148 148 155 162 167 156 143 161 147 136 127 113 81 49 65 151 163 136 114 43 8 202 289 252 206 170 139 129 130 130 120 116 114 112 109 100 91 88 90 95 95 91 73 64 53 65 29 6 26 357 25 6 338 347 5 358 300 307 353 341 315 308 306 300 300 304 303
194 190 215 206 211 217 186 177 178 200 194 206 195 215 117 132 136 143 137 143 145 156 186 191 166 169 171 163 156 154 151 151 152 147 143 118 166 108 100 105 87 73 78 100 88 69 81 93 94 119 182 303 310 273 224 138 131 122 120 111 113 109 104 92 92 93 102 99 89 80 79 72 71 57 46 34 52 41 56 11 29 358 359 353 8 338 327 3 338 336 322 315 313 303 302 299 296
200 194 201 213 199 200 206 172 179 194 187 209 185 143 125 134 139 129 131 159 177 155 181 243 209 165 158 154 152 144 150 138 132 124 101 74 92 79 50 71 72 82 93 84 64 13 295 165 136 157 149 163 277 293 264 159 147 136 128 122 102 96 101 100 93 91 87 78 70 67 68 57 53 52 45 42 34 28 26 30 30 10 15 359 359 357 350 347 344 332 329 327 317 312 302 302 305
205 198 202 219 204 203 200 182 170 187 193 211 177 146 144 148 158 165 178 171 168 166 192 203 183 153 159 148 132 120 87 65 70 82 87 91 115 114 80 86 95 70 74 87 119 195 224 201 165 178 156 144 53 239 272 202 136 111 117 108 119 111 94 90 83 78 75 70 64 60 52 51 44 40 35 32 27 23 22 18 8 15 10 359 357 354 346 340 342 334 323 318 320 314 310 316 319
221 194 204 215 206 207 151 153 161 188 204 190 158 154 142 148 173 187 176 193 192 178 186 212 174 163 152 148 128 109 109 115 106 98 106 133 127 105 80 79 96 91 104 113 166 177 200 187 183 167 82 64 258 277 267 293 76 72 118 118 110 108 106 92 89 79 73 70 64 59 54 44 45 37 28 25 19 18 15 12 4 5 4 360 0 2 341 347 343 341 347 330 326 319 316 321 326
234 209 198 214 203 183 134 171 176 181 211 178 166 158 153 159 167 186 186 192 191 191 185 195 178 163 161 140 127 128 126 127 120 103 105 108 106 101 91 104 122 143 142 159 179 185 175 179 157 127 127 101 359 259 207 4 323 99 101 106 104 96 87 91 92 84 76 76 68 59 52 43 40 35 29 26 21 18 13 16 15 19 20 4 356 356 352 358 0 353 354 347 336 326 315 321 336
218 221 198 207 202 177 174 167 193 184 211 156 166 155 139 149 169 193 201 200 168 187 193 194 182 171 154 133 147 142 136 130 131 123 117 115 112 114 117 96 124 137 140 146 150 159 126 113 129 193 129 139 230 320 317 147 123 100 95 91 89 92 101 103 99 98 91 82 71 60 54 47 40 34 27 24 21 22 20 13 9 17 13 13 5 358 356 359 356 352 357 351 342 332 336 335 335
217 223 207 206 192 152 175 165 186 193 177 168 174 144 148 165 182 181 176 172 178 186 189 195 168 160 148 150 149 147 141 136 137 135 132 124 118 118 113 123 138 132 123 117 141 142 147 121 119 130 189 170 182 215 172 115 114 106 100 100 104 108 111 108 108 96 90 82 71 51 46 44 44 41 38 33 25 22 16 16 12 13 11 11 11 358 357 353 342 337 356 349 340 335 326 327 320
207 224 223 209 150 183 191 166 184 183 190 187 171 169 192 179 182 172 154 175 179 191 185 182 172 169 163 163 151 145 137 137 141 143 137 131 130 127 123 123 125 110 92 90 99 128 143 109 79 61 48 8 176 206 160 142 126 115 125 127 123 119 116 116 103 103 93 76 76 79 65 57 50 34 36 42 36 30 22 18 19 9 5 8 3 354 353 346 346 342 351 341 336 330 326 319 323
203 202 226 231 168 200 190 173 184 191 192 179 193 207 177 158 203 195 176 188 178 178 189 186 184 171 168 158 151 149 144 134 128 128 133 131 131 131 131 129 127 112 91 72 54 42 91 102 122 170 190 183 140 151 130 180 107 103 99 105 116 118 116 99 92 88 86 79 80 71 58 41 35 41 37 29 29 22 15 17 16 11 3 1 347 353 358 352 345 347 347 344 339 338 341 329 336
210 180 194 273 199 199 181 185 190 198 183 170 208 223 176 180 188 203 192 192 193 183 191 195 183 175 167 153 153 152 143 140 135 137 136 133 135 132 129 127 120 110 97 88 93 62 36 120 150 111 105 136 98 80 72 70 87 72 71 78 87 85 91 96 89 78 80 86 75 66 71 61 43 34 32 31 22 23 19 22 21 17 7 4 354 15 5 4 355 355 357 354 351 349 343 340 335
202 158 186 231 181 185 170 188 195 209 185 193 207 217 233 186 174 184 193 193 188 188 185 192 185 180 166 157 153 150 148 146 144 141 142 140 135 129 128 124 122 117 114 114 94 91 163 127 120 127 115 89 79 68 62 60 65 67 71 84 81 81 88 97 100 94 86 81 75 65 59 72 70 48 36 30 30 33 30 33 31 28 21 15 14 20 9 11 7 4 10 359 8 356 353 358 350
214 154 178 197 180 186 190 201 199 205 200 210 202 208 226 196 176 186 187 206 198 191 189 185 182 175 166 161 155 147 150 146 143 140 143 141 135 128 120 117 116 114 117 116 118 135 128 106 106 105 92 76 79 76 70 67 65 68 77 92 102 106 109 101 103 105 103 92 82 76 68 60 58 57 48 37 32 40 35 33 34 31 25 20 16 14 8 8 8 7 13 1 17 3 11 5 6
128 176 178 190 188 203 202 217 213 207 215 211 207 206 217 219 176 175 173 203 194 188 193 184 177 176 168 168 157 157 150 142 142 139 130 130 127 125 121 115 117 121 128 125 129 126 114 108 106 93 85 80 73 82 77 73 72 72 76 71 82 95 102 109 111 111 108 104 92 83 77 69 60 55 52 46 34 35 37 36 31 31 29 19 16 12 10 7 0 11 11 11 23 11 14 1 17
166 180 193 173 206 193 205 209 215 217 215 216 207 210 210 233 185 180 177 191 207 197 191 183 180 177 167 165 160 157 149 143 142 139 135 131 129 127 126 122 122 122 122 121 120 112 109 111 105 99 90 83 79 77 82 79 80 84 82 80 77 88 104 101 97 96 93 93 94 96 91 80 69 67 58 50 38 30 37 35 30 30 30 22 18 13 14 8 1 16 20 12 20 17 15 6 18
177 183 194 186 170 195 200 204 209 214 220 200 211 207 218 227 199 172 182 193 206 199 191 186 178 172 157 169 158 153 150 143 145 142 143 140 135 134 130 128 128 126 125 124 116 111 99 97 99 96 88 84 79 75 76 81 81 78 79 82 80 71 81 96 100 93 90 92 90 85 79 76 73 65 52 53 43 37 36 37 35 30 28 25 20 14 18 15 0 26 24 16 23 15 16 7 20
183 193 187 185 187 188 198 201 206 216 221 208 214 196 225 221 219 177 188 185 196 192 179 181 174 166 160 167 152 151 151 145 147 150 148 144 139 134 130 130 126 125 127 127 108 97 95 101 100 92 90 82 80 78 79 80 75 73 77 84 92 93 88 87 90 92 91 90 91 91 87 84 80 68 60 50 43 43 43 41 36 35 29 27 23 19 21 21 10 22 29 19 21 15 13 7 20
189 202 196 197 201 183 189 205 195 207 212 199 233 194 209 209 198 163 167 175 182 184 174 166 169 157 167 158 143 148 159 159 155 156 152 145 138 133 131 129 129 128 133 124 111 114 116 112 101 102 91 79 76 76 72 74 78 73 79 86 91 94 97 97 93 91 91 95 92 90 86 79 73 68 61 55 48 47 46 43 39 33 33 27 28 25 20 29 21 24 33 22 22 9 14 13 11
191 209 213 211 211 169 210 203 220 201 208 191 203 198 181 202 16 63 177 175 178 170 158 156 161 165 156 155 155 164 163 159 156 151 146 139 134 134 134 133 132 133 127 121 121 122 117 108 103 96 92 88 81 76 74 70 72 82 87 91 91 93 99 100 98 96 93 88 92 89 80 73 74 73 63 59 51 45 41 44 43 41 31 32 29 28 27 26 26 25 30 25 21 9 15 18 13
181 209 210 209 207 197 194 197 330 324 221 205 174 187 103 105 210 144 202 176 169 157 156 162 157 157 162 160 160 159 162 161 154 147 146 141 137 137 136 136 136 135 132 127 130 120 114 116 114 108 99 92 85 85 83 82 82 83 83 86 92 95 95 94 94 94 92 91 86 82 79 78 75 68 69 59 56 52 46 39 46 37 36 33 30 27 28 26 26 26 24 25 16 10 13 18 13
173 210 203 205 222 239 196 207 173 217 212 197 185 211 181 178 195 182 196 182 168 165 163 166 156 155 164 158 164 166 162 157 152 146 146 143 141 139 137 137 138 137 133 129 121 119 122 118 116 112 107 103 99 90 89 95 94 89 90 94 96 100 101 97 98 95 94 93 90 85 83 78 72 74 73 68 62 59 52 48 44 42 39 36 31 27 27 26 24 28 20 27 15 8 14 16 14
215 202 177 207 181 215 191 212 197 201 211 201 196 208 222 194 184 165 189 188 171 168 162 166 166 170 170 165 169 170 163 156 152 147 148 148 144 141 137 138 136 131 130 125 122 120 120 115 112 112 111 112 109 106 103 101 104 102 100 99 100 96 92 92 90 87 85 84 81 81 79 78 78 73 71 69 66 57 57 52 45 46 37 40 35 31 24 27 22 23 20 18 16 13 13 14 17
229 199 204 213 220 210 203 191 204 206 205 212 199 206 225 204 174 170 182 191 178 177 175 174 174 174 173 170 171 169 166 158 153 150 149 148 146 143 142 141 139 136 132 129 127 126 124 123 123 117 109 106 106 108 108 104 100 103 104 102 94 94 94 93 90 87 86 85 86 86 83 79 76 75 69 63 61 61 57 56 51 45 46 38 38 31 24 25 23 23 20 16 14 13 14 16 13
199 220 207 191 215 206 248 188 218 198 210 201 212 202 218 217 166 177 181 190 181 186 176 174 176 172 172 170 165 160 164 158 153 150 148 148 146 144 142 140 138 136 135 133 134 133 131 135 131 118 115 114 110 110 110 107 107 106 107 102 96 92 90 89 87 87 86 83 81 77 75 77 75 69 69 66 60 58 56 50 52 48 40 39 36 30 23 22 21 20 22 17 9 15 10 16 6
191 202 210 192 184 188 201 204 206 221 202 198 204 218 212 191 149 174 177 189 187 186 183 182 177 174 174 160 157 162 162 158 154 150 151 148 145 143 142 142 142 141 141 139 140 141 140 135 132 123 121 120 119 112 114 113 111 110 108 99 98 94 91 89 89 87 87 84 81 79 81 79 73 66 62 62 63 56 56 58 51 46 42 38 32 30 21 20 19 15 20 16 12 10 12 13 9